Connexion

Connexion à votre compte

Identifiant
Mot de passe
Maintenir la connexion active sur ce site

Nous contacter

 Téléphone : +33 (0)4 79 54 41 81

Coordonnées détaillées et accès : cliquez ici

facebook 770688 960 720  logo instagram large

[source: ADDS]
METAR / TAF
LFLB 010830Z AUTO 01008KT 9999 BKN026 BKN032 OVC040 07/02 Q1020 NOSIG =
TAF LFLB 010800Z 0109/0209 36007KT 9999 BKN025 OVC035 PROB30 TEMPO 0203/0209 BKN014 OVC020

SR / SS: 06:56 / 15:54 UTC (Lever/Coucher du soleil le 2022-12-01)
JSN Boot template designed by JoomlaShine.com